{"data":{"norad_id":63352,"intl_designator":"2025-061B","name":"LEMUR-2-ESPERANZA","alt_names":[],"object_type":"PAYLOAD","status":"ACTIVE","operator":null,"country":"US","launch_date":"2025-03-26","launch_site_code":"RLLB","launch_vehicle":null,"mission":null,"orbit_class":"UNKNOWN","rcs_meters":null,"size_class":null,"mass_kg":null,"dimensions":null,"purposes":["earth_obs"],"wikipedia_slug":null,"has_3d_model":false,"image_url":null,"decayed_at":null,"tle_current":{"epoch":"2026-05-24T22:13:00.250176Z","epoch_age_seconds":81785,"freshness":"FRESH","line1":"1 63352U 25061B   26144.92569734  .00003372  00000+0  19209-3 0  9993","line2":"2 63352  97.5632 120.5507 0018083 350.7649   9.3247 15.13376393 64070","mean_motion":15.13376393,"eccentricity":0.0018083,"inclination_deg":97.5632,"raan_deg":120.5507,"arg_perigee_deg":350.7649,"mean_anomaly_deg":9.3247,"bstar":0.00019209,"rev_number":6407,"period_min":95.151477627152,"perigee_km":513.42750625802,"apogee_km":538.39669022672,"semimajor_km":6904.0490982424,"source":"CELESTRAK","updated_at":"2026-05-25T13:38:13.540583Z"}}}